Regional Weather Roundup
Issued by NWS

Home | Current Version | Previous Version | Text Only | Print | Product List | Glossary On
Versions: 1 2 3 4 5 6 7 8 9 10 11 12 13 14 15 16 17 18 19 20 21 22 23 24 25 26 27 28 29 30 31 32 33 34 35 36 37 38 39 40 41 42 43 44 45 46 47 48 49 50
000
ASUS43 KDTX 310410
RWRMI
MICHIGAN HOURLY REGIONAL WEATHER ROUNDUP
NATIONAL WEATHER SERVICE DETROIT/PONTIAC MI
1100 PM EST FRI JAN 30 2015

NOTE: "FAIR" INDICATES FEW OR NO CLOUDS BELOW 12,000 FEET WITH NO
SIGNIFICANT WEATHER AND/OR OBSTRUCTION TO VISIBILITY.

MIZ047>049-052>055-059>063-066>070-074>076-081>083-310500-
SOUTHEAST LOWER MICHIGAN

CITY           SKY/WX    TMP DP  RH WIND       PRES   REMARKS
ADRIAN         PTCLDY    14   9  80 SW3       30.40F
ALMA           CLOUDY    15   8  75 CALM      30.36F
ANN ARBOR      CLOUDY    11   6  81 CALM      30.39F
BAD AXE        CLOUDY     3  -1  84 CALM      30.37S
DETROIT CITY   PTCLDY    13   1  59 S6        30.41F
DETROIT        MOCLDY    13   4  67 S3        30.42F
FLINT          MOCLDY    15   4  61 S6        30.37F
GROSSE ILE     PTCLDY    10   3  72 CALM      30.40F
HILLSDALE      CLOUDY    15   8  76 CALM      30.36F
HOWELL         PTCLDY    13   6  72 SW5       30.36F

CITY           SKY/WX    TMP DP  RH WIND       PRES   REMARKS
JACKSON        MOCLDY    15  10  80 SW5       30.37F
LAMBERTVILLE   PTCLDY    16  10  79 CALM      30.41F
LANSING        MOCLDY    18  10  71 W6        30.37F
LAPEER         NOT AVBL
MASON          CLOUDY    17  10  73 CALM      30.37F
MONROE         PTCLDY    16   9  73 CALM      30.40F
MT. CLEMENS    PTCLDY    10   2  72 S3        30.39F
PONTIAC        CLOUDY    11   4  73 CALM      30.36F
PORT HOPE        N/A     11  -1  58 SW7       30.36F
PORT HURON     MOCLDY     3   0  85 SW3       30.40F
TRI CITIES     MOCLDY    15   7  70 CALM      30.37F
YPSILANTI      PTCLDY    17   7  64 SE8       30.40F
$$
MIZ043>046-050>051-056>058-064>065-071>073-077>080-310500-
SOUTHWEST LOWER MICHIGAN

CITY           SKY/WX    TMP DP  RH WIND       PRES   REMARKS
BATTLE CREEK   PTCLDY    19  11  70 S5        30.37F
BENTON HARBOR  PTCLDY    17  13  84 S3        30.39F
BIG RAPIDS     MOCLDY    11   7  87 CALM      30.32F
COLDWATER      PTCLDY    15  11  82 CALM      30.38S
HOLLAND        PTCLDY    20  13  74 S5        30.37F
GRAND RAPIDS   MOCLDY    17  11  77 S5        30.36F
KALAMAZOO      CLOUDY    19  12  74 SW6       30.38F
MARSHALL       MOCLDY    13   9  81 CALM      30.36F
MUSKEGON       CLOUDY    18  11  74 E6        30.36F
$$
MIZ016>042-310500-
NORTHERN LOWER MICHIGAN

CITY           SKY/WX    TMP DP  RH WIND       PRES   REMARKS
ALPENA         CLOUDY     9   3  77 S3        30.34F
BEAVER ISLAND  CLOUDY    11   6  79 CALM      30.30F
CADILLAC       CLOUDY     7   4  87 CALM      30.28F
CHARLEVOIX     CLOUDY    17  10  74 CALM      30.34F
FRANKFORT      MOCLDY    18  12  78 SE5       30.32F
GAYLORD        CLOUDY    11   7  84 SW8       30.26F
GRAYLING       MOCLDY     8   5  87 CALM      30.31S
HARBOR SPRINGS MOCLDY    15  10  81 CALM      30.31F
HOUGHTON LAKE  PTCLDY     6   2  83 CALM      30.31F
MANISTEE       CLOUDY    16   7  67 SE3       30.33F
OSCODA         CLOUDY     5   0  77 SW3       30.36S
PELLSTON       CLOUDY    13   8  81 S5        30.31F
TRAVERSE CITY  CLOUDY    15   8  73 CALM      30.33F
$$
MIZ007>008-015-310500-
EASTERN UPPER MICHIGAN

CITY           SKY/WX    TMP DP  RH WIND       PRES   REMARKS
KINROSS        MOCLDY    10   7  85 CALM      30.28F
MACKINAC ISLAN MOCLDY    14   7  73 SW3       30.30S
NEWBERRY       PTCLDY     7   5  89 S6        30.26F
S. S. MARIE    CLOUDY    10   3  73 CALM      30.28F
$$
MIZ004>006-011>014-085-310500-
CENTRAL UPPER MICHIGAN

CITY           SKY/WX    TMP DP  RH WIND       PRES   REMARKS
MANISTIQUE     CLOUDY    17   9  70 SW3       30.28F
ESCANABA       CLOUDY    18   9  68 SW7       30.28F
MENOMINEE      CLOUDY    18   9  68 SW6       30.29S
SAWYER-GWINN   LGT SNOW  13   8  79 SW9       30.19F
$$
MIZ001>003-009>011-084-310500-
WESTERN UPPER MICHIGAN

CITY           SKY/WX    TMP DP  RH WIND       PRES   REMARKS
IRON MOUNTAIN  CLOUDY    17   5  59 SW7       30.21F
HOUGHTON       LGT SNOW  14   7  73 SW6       30.15F
COPPER HARBOR    N/A     18   6  59 W6        30.19F
IRONWOOD       CLOUDY    18   3  53 SW6       30.16F
$$

ABBREVIATIONS USED IN REMARKS
   TC - TEMPERATURE IN CELSIUS
  WCI - WIND CHILL INDEX
   HX - HEAT INDEX
  VSB - VISIBILITY



USA.gov is the U.S. government's official web portal to all federal, state and local government web resources and services.